Volver al catálogo

FENGYUN 1C DEB

ActivoSSO
NORAD 29939·DEBRIS·🇨🇳 China

Lanzado May 10, 1999 desde Taiyuan Satellite Launch Center

Loading…

Próximos Pases (próximas 24 horas)

TLE

ActualizadoSource: Space-Track

Época: Sep 14, 2026, 23:19 UTC

1 29939U 99025JM  26257.97169351  .00000004  00000-0  24890-4 0  9991
2 29939  98.7216 254.9048 0067297  74.0438 306.4048 14.12139189 13576

Sigue FENGYUN 1C DEB en tiempo real con AllMySat

Download on the App Store